User: anonymous   Login
Location: Ostrava
(49.8330°N, 18.2830°E)
Time: 07:41:28
(UTC+01:00)
Language:

Cosmos 1400 Rocket - Orbit

View from above orbital plane
View from above orbital plane
View from above satellite
View from above satellite

Ground track
Ground track

The orbit data is extracted from the following two-line orbital elements,

1 13403U 82079B   17017.88495401 -.00000290 +00000-0 -21067-4 0  9995
2 13403 081.1691 081.4867 0035070 055.3379 305.1141 15.06461344873872
Epoch (UTC): 17 January 2017 21:14:20
Eccentricity: 0.0035070
inclination: 81.1691°
perigee height: 523 km
apogee height: 571 km
right ascension of ascending node: 81.4867°
argument of perigee: 55.3379°
revolutions per day: 15.06461344
mean anomaly at epoch: 305.1141°
orbit number at epoch: 87387

The dashed part of the orbit path shows where the satellite is in the earth's shadow,  

DLR